Location: Barrio de Canyet
(41.4665°N, 2.2381°E)
Time: 08:42:24
(UTC+00:00)

MetOp-B - Pass Details

Date: 09 April 2020
Orbit: 819 x 822 km, 98.7° (Epoch: 03 June)

Event Time Altitude Azimuth Distance (km) Brightness Sun altitude
Exits shadow 20:32:22 53° 121° (ESE) 1,008 4.2 -22.6°
Maximum altitude 20:33:23 64° 73° (ENE) 910 4.1 -22.8°
Drops below altitude 10° 20:38:41 10° 353° (N) 2,428 7.1 -23.6°
Sets 20:41:04 0° 350° (N) 3,365 8.0 -24.0°
